This demonstration page uses our WeatherBlox Daily Observations layout. Learn more.

Left ArrowRight Arrow

39.12711, -84.51439

Hourly Observations for June 29, 2016

Temp ( °F °C ) Dew Point ( °F °C ) Humidity (%) Winds ( mph kmh ) Pressure ( in mb ) Visibility ( mi km ) Precip ( " mm )
12:53 am 00:53 Clear 63 17.2 54 12.2 73 73 NNE 7 11 30.06 1018 10 16 0.00 0.00
1:53 am 01:53 Clear 60 15.6 54 12.2 80 80 NNE 3 6 30.06 1018 10 16 0.00 0.00
2:53 am 02:53 Clear 61 16.1 54 12.2 78 78 NNW 6 9 30.06 1018 10 16 0.00 0.00
3:53 am 03:53 Clear 59 15 55 12.8 87 87 E 3 6 30.06 1018 10 16 0.00 0.00
4:53 am 04:53 Clear 56 13.3 55 12.8 97 97 ESE 3 6 30.07 1018 10 16 0.00 0.00
5:53 am 05:53 Clear 57 13.9 54 12.2 90 90 Calm 30.08 1019 10 16 0.00 0.00
6:53 am 06:53 Mostly Sunny 56 13.3 55 12.8 97 97 Calm 30.08 1019 10 16 0.00 0.00
7:53 am 07:53 Partly Cloudy 62 16.7 57 13.9 84 84 NNE 6 9 30.08 1019 10 16 0.00 0.00
8:53 am 08:53 Mostly Cloudy 64 17.8 58 14.4 81 81 VRB 3 6 30.09 1019 10 16 0.00 0.00
9:53 am 09:53 Mostly Cloudy 67 19.4 59 15 76 76 NNE 3 6 30.10 1019 10 16 0.00 0.00
10:53 am 10:53 Mostly Cloudy 68 20 58 14.4 70 70 Calm 30.10 1019 10 16 0.00 0.00
11:53 am 11:53 Mostly Cloudy 70 21.1 58 14.4 66 66 E 5 7 30.09 1019 10 16 0.00 0.00
12:53 pm 12:53 Mostly Cloudy 74 23.3 57 13.9 56 56 VRB 6 9 30.09 1019 10 16 0.00 0.00
1:53 pm 13:53 Mostly Cloudy 75 23.9 57 13.9 54 54 E 6 9 30.09 1019 10 16 0.00 0.00
2:53 pm 14:53 Mostly Cloudy 74 23.3 53 11.7 48 48 NNE 6 9 30.08 1019 10 16 0.00 0.00
3:53 pm 15:53 Mostly Cloudy 76 24.4 54 12.2 47 47 VRB 6 9 30.07 1018 10 16 0.00 0.00
4:53 pm 16:53 Partly Cloudy 75 23.9 54 12.2 48 48 VRB 3 6 30.06 1018 10 16 0.00 0.00
5:53 pm 17:53 Partly Cloudy 76 24.4 53 11.7 45 45 VRB 5 7 30.04 1017 10 16 0.00 0.00
6:53 pm 18:53 Partly Cloudy 77 25 53 11.7 43 43 ENE 3 6 30.03 1017 10 16 0.00 0.00
7:53 pm 19:53 Mostly Sunny 76 24.4 52 11.1 43 43 E 3 6 30.03 1017 10 16 0.00 0.00
8:53 pm 20:53 Mostly Sunny 70 21.1 58 14.4 66 66 Calm 30.04 1017 10 16 0.00 0.00
9:53 pm 21:53 Clear 63 17.2 57 13.9 81 81 Calm 30.05 1018 10 16 0.00 0.00
10:53 pm 22:53 Clear 62 16.7 57 13.9 84 84 Calm 30.06 1018 10 16 0.00 0.00
11:53 pm 23:53 Clear 60 15.6 57 13.9 90 90 Calm 30.06 1018 10 16 0.00 0.00

Powered by AerisWeather